STARLINK-34741 (65097 NORAD) Tracking and Keplerian Element Data

This shows tracking and keplerian element data for the satellite.

Feedback or suggestion? Click here.




ElementValue
Catalog65097
NameSTARLINK-34741
Epoch Orbit2120
Epoch Day353.50883406
Epoch Year2025
RAAN39.1005
Inclination53.1587
Eccentricity0.0001199
Argument of Perigee92.7544
Mean Anonmoly267.3594
Mean Motion15.30193188
Decay Rate0.00019168
L11 65097U 25167V 25353.50883406 .00019168 00000+0 65775-3 0 9997
L22 65097 53.1587 39.1005 0001199 92.7544 267.3594 15.30193188 21207



Live tracking and technical data element details for STARLINK-34741 (NORAD 65097). STARLINK-34741 can be tracked NOW for your location showing map with azimuth and elevation plus other details from your city location.







IsCatalogInMostPopularTable: catalog: 65097, numindb: 4
Update: records affected: 1



GetName: 65097 STARLINK-34741

Hit Count: updated at: Tue, 10 Feb 2026 03:20:01 GMT